Flag for Martinique Weather past 2 weeks in Fort-de-France, Martinique

Now
81 °F

Clear.


Feels Like: 86 °F
Forecast: 80 / 87 °F
Wind: 3 mph from Northeast

Location: Le Lamentin Airport

Current Time: Aug 28, 2014 at 9:17:21 PM

Latest Report: Aug 28, 2014 at 9:00 PM


Visibility: N/A

Pressure: 29.98 "Hg

Humidity: 84%

Dew point: 75 °F

Location of Fort-de-FranceLocation

Historic Weather in Fort-de-France — Graph

°F

Fort-de-France temperature yesterday

Maximum temperature yesterday: 82 °F (at 12:00 AM)
Minimum temperature yesterday: 73 °F (at 9:30 PM)
Average temperature yesterday: 79 °F

Past Weeks' High & Low Weather Summary

 TemperatureHumidityPressure
High90 °F (Aug 16, 11:00 AM)100% (Aug 21, 5:00 AM)30.04 "Hg (Aug 21, 5:00 AM)
Low73 °F (Aug 24, 5:30 AM)59% (Aug 17, 12:30 PM)29.83 "Hg (Aug 21, 3:30 PM)
Average82 °F81%29.94 "Hg
* Reported Aug 13 8:00 PM — Aug 28 8:00 PM, Fort-de-France, Weather by CustomWeather, © 2014

Note: Actual official high and low records may vary slightly from our data, if they occured in-between our weather recording intervals... More about our weather records

Advertising

Fort-de-France weather history for previous 24 hours

 ConditionsComfort  
Time TempWeatherWind HumidityBarometerVisibility
8:00 PM
Aug 28
81 °FPassing clouds.3 mph84%29.98 "HgN/A
7:30 PM81 °FClear.6 mph84%29.95 "HgN/A
7:00 PM81 °FClear.6 mph84%29.95 "HgN/A
6:30 PM81 °FPassing clouds.7 mph84%29.95 "HgN/A
6:00 PM82 °FBroken clouds.9 mph74%29.95 "HgN/A
5:30 PM84 °FMore clouds than sun.12 mph74%29.95 "HgN/A
5:00 PM84 °FPassing clouds.13 mph74%29.95 "HgN/A
4:30 PM86 °FPartly sunny.10 mph70%29.95 "HgN/A
4:00 PM84 °FPartly sunny.13 mph70%29.95 "HgN/A
3:30 PM84 °FBroken clouds.16 mph74%29.95 "HgN/A
3:00 PM86 °FBroken clouds.14 mph70%29.95 "HgN/A
2:30 PM88 °FBroken clouds.14 mph62%29.95 "HgN/A
2:00 PM86 °FBroken clouds.13 mph70%29.95 "HgN/A
1:30 PM86 °FScattered clouds.14 mph66%29.98 "HgN/A
1:00 PM86 °FPassing clouds.12 mph70%29.98 "HgN/A
12:30 PM86 °FBroken clouds.15 mph66%29.98 "HgN/A
12:00 PM86 °FPartly sunny.12 mph70%29.98 "HgN/A
11:30 AM86 °FBroken clouds.13 mph70%30.01 "HgN/A
11:00 AM84 °FPartly sunny.14 mph74%30.01 "HgN/A
10:30 AM84 °FBroken clouds.14 mph74%30.01 "HgN/A
10:00 AM82 °FMostly cloudy.13 mph79%30.01 "HgN/A
9:30 AM82 °FMostly cloudy.9 mph79%30.01 "HgN/A
9:00 AM81 °FCloudy.6 mph84%30.01 "HgN/A
8:30 AM79 °FOvercast.6 mph89%30.01 "HgN/A
7:30 AM77 °FClear.7 mph89%29.98 "HgN/A
7:00 AM75 °FMostly cloudy.5 mph89%29.98 "HgN/A
6:30 AM75 °FClear.5 mph89%29.95 "HgN/A
6:00 AM75 °FClear.6 mph89%29.95 "HgN/A
5:30 AM73 °FClear.5 mph94%29.95 "HgN/A
5:00 AM73 °FClear.3 mph94%29.92 "HgN/A
4:30 AM73 °FClear.3 mph94%29.92 "HgN/A
4:00 AM73 °FClear.3 mph94%29.92 "HgN/A
3:30 AM73 °FClear.3 mph94%29.95 "HgN/A
3:00 AM73 °FClear.6 mph94%29.95 "HgN/A
2:30 AM73 °FClear.3 mph94%29.95 "HgN/A
2:00 AM73 °FClear.5 mph94%29.95 "HgN/A
1:30 AM73 °FLight rain. Clear.6 mph94%29.98 "HgN/A
1:00 AM73 °FLight rain. Clear.5 mph89%29.98 "HgN/A
12:30 AM73 °FLight rain. Clear.6 mph94%30.01 "HgN/A
12:00 AM73 °FLight rain. Clear.5 mph94%30.01 "HgN/A
11:30 PM
Aug 27
73 °FLight rain. Clear.6 mph94%30.01 "HgN/A
11:00 PM73 °FLight rain. Overcast.6 mph94%30.01 "Hg4 mi
10:30 PM73 °FLight rain. Partly cloudy.6 mph94%30.01 "Hg4 mi
10:00 PM73 °FLight rain. Partly cloudy.3 mph94%30.01 "Hg5 mi
9:30 PM73 °FMild.6 mph94%30.01 "HgN/A
9:00 PM75 °FLight rain. Partly cloudy.9 mph94%30.01 "HgN/A
Weather by CustomWeather, © 2014

See weather overviewHow to use our weather pages